Regional Weather Roundup
Issued by NWS

Home | Current Version | Previous Version | Graphics & Text | Print | Product List | Glossary On
Versions: 1 2 3 4 5 6 7 8 9 10 11 12 13 14 15 16 17 18 19 20 21 22 23 24 25 26 27 28 29 30 31 32 33 34 35 36 37 38 39 40 41 42 43 44 45 46 47 48 49 50
000
ASUS45 KABQ 011901
RWRNM
NEW MEXICO REGIONAL WEATHER ROUNDUP
NATIONAL WEATHER SERVICE ALBUQUERQUE NM
100 PM MDT SUN MAY 01 2016

NOTE: "FAIR" MEANS FEW OR NO CLOUDS BELOW 12,000 FEET AGL WITH NO
       SIGNIFICANT WEATHER OR OBSTRUCTIONS TO VISION.

      THIS PRODUCT IS RELEASED AS TWO VERSIONS.  ONE VERSION NEAR
      THE TOP OF THE HOUR CONTAINING PRELIMINARY DATA FROM ALBUQUERQUE
      AND OTHER STATIONS.  A FINAL VERSION WITH ADDITIONAL DATA IS
      ISSUED ABOUT 10 MINUTES AFTER THE HOUR.

NMZ501-503-504-510>518-012000-
NORTHWEST PLATEAU/NORTHCENTRAL MOUNTAINS

CITY           SKY/WX    TMP DP  RH WIND       PRES   REMARKS
FARMINGTON     CLOUDY    45  41  86 E14       30.05F
SANTA FE       CLOUDY    40  36  86 VRB7      30.13F
TAOS           CLOUDY    34  27  75 NW10      30.16R WCI  26
ANGEL FIRE     PTSUNNY   34  24  67 N22       30.18S WCI  22

$$
NMZ402-403-502-505>509-012000-
WESTCENTRAL MOUNTAINS/SOUTHWEST MOUNTAINS

CITY           SKY/WX    TMP DP  RH WIND       PRES   REMARKS
GALLUP         PTSUNNY   46  37  71 S20G26    30.03S
GRANTS         CLOUDY    40  35  80 SE20G26   30.08F WCI  31
SILVER CITY      N/A     57  28  33 W10G20    30.01S

$$
NMZ407-409-411-412-012000-
SOUTHERN DESERTS

CITY           SKY/WX    TMP DP  RH WIND       PRES   REMARKS
LORDSBURG      CLOUDY    64  28  25 SW13G20   29.94F
DEMING         FAIR      69  20  15 S7G21     29.95F
HOLLOMAN AFB   CLOUDY    63  33  32 W6        29.98F
ALAMOGORDO     PTSUNNY   64  32  29 CALM      29.99F
T OR C         LGT RAIN  61  35  37 E14G23    29.98F

$$
NMZ519>523-012000-
CENTRAL VALLEYS/CENTRAL HIGHLANDS

CITY           SKY/WX    TMP DP  RH WIND       PRES   REMARKS
ALBUQUERQUE    PTSUNNY   49  29  46 E35G46    30.08F
DOUBLE EAGLE   PTSUNNY   48  32  53 E18G29    30.11F
MORIARTY ARPT  CLOUDY    38  28  67 E18       30.20S WCI  29
CLINES CORNERS LGT SNOW  32  29  88 E22G29    30.16R FOG     WCI  19
BELEN          FAIR      56  28  33 SE20G29   30.07F
SOCORRO        NOT AVBL

$$
NMZ524>526-539-540-012000-
SOUTHCENTRAL MOUNTAINS

CITY           SKY/WX    TMP DP  RH WIND       PRES   REMARKS
RUIDOSO        NOT AVBL

$$
NMZ527>531-012000-
NORTHEAST HIGHLANDS/NORTHEAST PLAINS

CITY           SKY/WX    TMP DP  RH WIND       PRES   REMARKS
RATON          CLOUDY    38  28  67 N23G30    30.21R WCI  27
CLAYTON        LGT SNOW  37  35  92 N22G30    30.21F FOG     WCI  26

$$
NMZ532>537-012000-
EASTCENTRAL PLAINS

CITY           SKY/WX    TMP DP  RH WIND       PRES   REMARKS
TUCUMCARI      LGT RAIN  44  38  79 NE13      30.22F
CANNON AFB     CLOUDY    41  39  95 NE18G29   30.19F
CLOVIS AIRPORT CLOUDY    41  34  75 N22G28    30.21S

$$
NMZ028-029-538-012000-
SOUTHEAST PLAINS

CITY           SKY/WX    TMP DP  RH WIND       PRES   REMARKS
ROSWELL        CLOUDY    45  37  73 N17       30.20F
ARTESIA        CLOUDY    46  36  66 N18G24    30.20F
CARLSBAD       CLOUDY    48  35  60 N20G26    30.17F
HOBBS          CLOUDY    46  36  66 N21G26    30.15F


$$




USA.gov is the U.S. government's official web portal to all federal, state and local government web resources and services.